| time (UTC) | temp F | wind direction | speed MPH | gust MPH | rain 1hr in | rain 24hr in | rain mn in | humidity % | barometer mb |
| 20260510060946 | 54 | 295 | 6.0 | 15.0 | 0.00 | 0.00 | 0.00 | 75 | |
| 20260510060446 | 54 | 298 | 9.0 | 17.0 | 0.00 | 0.00 | 0.00 | 74 | |
| 20260510055946 | 54 | 286 | 11.0 | 23.0 | 0.00 | 0.00 | 0.00 | 74 | |
| 20260510055446 | 54 | 267 | 11.0 | 16.0 | 0.00 | 0.00 | 0.00 | 74 | |
| 20260510054946 | 54 | 267 | 8.0 | 19.0 | 0.00 | 0.00 | 0.00 | 73 | |
| 20260510054446 | 54 | 296 | 8.0 | 14.0 | 0.00 | 0.00 | 0.00 | 73 | |
| 20260510053946 | 54 | 300 | 6.0 | 12.0 | 0.00 | 0.00 | 0.00 | 73 | |
| 20260510053446 | 54 | 305 | 9.0 | 18.0 | 0.00 | 0.00 | 0.00 | 73 | |
| 20260510052946 | 54 | 288 | 6.0 | 16.0 | 0.00 | 0.00 | 0.00 | 72 | |
| 20260510052446 | 54 | 358 | 5.0 | 14.0 | 0.00 | 0.00 | 0.00 | 72 | |
| 20260510051946 | 54 | 291 | 9.0 | 17.0 | 0.00 | 0.00 | 0.00 | 71 | |
| 20260510051446 | 54 | 265 | 4.0 | 14.0 | 0.00 | 0.00 | 0.00 | 71 | |
| 20260510050946 | 54 | 293 | 11.0 | 19.0 | 0.00 | 0.00 | 0.00 | 71 | |
| 20260510050446 | 54 | 257 | 4.0 | 16.0 | 0.00 | 0.00 | 0.00 | 70 | |
| 20260510045946 | 54 | 300 | 8.0 | 24.0 | 0.00 | 0.00 | 0.00 | 70 | |
| 20260510045446 | 54 | 286 | 8.0 | 18.0 | 0.00 | 0.00 | 0.00 | 70 | |
| 20260510044946 | 54 | 268 | 6.0 | 18.0 | 0.00 | 0.00 | 0.00 | 70 | |
| 20260510044446 | 54 | 246 | 6.0 | 15.0 | 0.00 | 0.00 | 0.00 | 70 | |
| 20260510043946 | 54 | 320 | 6.0 | 13.0 | 0.00 | 0.00 | 0.00 | 69 | |
| 20260510043446 | 54 | 288 | 8.0 | 15.0 | 0.00 | 0.00 | 0.00 | 69 | |
| 20260510042946 | 54 | 299 | 8.0 | 15.0 | 0.00 | 0.00 | 0.00 | 69 | |
| 20260510042446 | 54 | 299 | 4.0 | 17.0 | 0.00 | 0.00 | 0.00 | 68 | |
| 20260510041946 | 55 | 295 | 6.0 | 17.0 | 0.00 | 0.00 | 0.00 | 68 | |
| 20260510041446 | 55 | 286 | 14.0 | 20.0 | 0.00 | 0.00 | 0.00 | 68 | |
| 20260510040946 | 55 | 307 | 8.0 | 16.0 | 0.00 | 0.00 | 0.00 | 68 | |
| 20260510040446 | 55 | 317 | 8.0 | 15.0 | 0.00 | 0.00 | 0.00 | 68 | |
| 20260510035946 | 55 | 295 | 6.0 | 18.0 | 0.00 | 0.00 | 0.00 | 68 | |
| 20260510035446 | 55 | 281 | 10.0 | 13.0 | 0.00 | 0.00 | 0.00 | 67 | |
| 20260510034946 | 55 | 253 | 6.0 | 18.0 | 0.00 | 0.00 | 0.00 | 68 | |
| 20260510034446 | 55 | 307 | 5.0 | 15.0 | 0.00 | 0.00 | 0.00 | 67 | |
| 20260510033946 | 55 | 313 | 7.0 | 18.0 | 0.00 | 0.00 | 0.00 | 66 | |
| 20260510033446 | 55 | 241 | 3.0 | 13.0 | 0.00 | 0.00 | 0.00 | 66 | |
| 20260510032946 | 55 | 272 | 4.0 | 14.0 | 0.00 | 0.00 | 0.00 | 66 | |
| 20260510032446 | 55 | 327 | 3.0 | 16.0 | 0.00 | 0.00 | 0.00 | 66 | |
| 20260510031946 | 56 | 295 | 7.0 | 18.0 | 0.00 | 0.00 | 0.00 | 65 | |
| 20260510031446 | 56 | 230 | 6.0 | 17.0 | 0.00 | 0.00 | 0.00 | 65 | |
| 20260510030946 | 56 | 315 | 3.0 | 15.0 | 0.00 | 0.00 | 0.00 | 65 | |
| 20260510030446 | 55 | 285 | 5.0 | 17.0 | 0.00 | 0.00 | 0.00 | 64 | |
| 20260510025946 | 56 | 316 | 4.0 | 16.0 | 0.00 | 0.00 | 0.00 | 64 | |
| 20260510025446 | 56 | 299 | 3.0 | 16.0 | 0.00 | 0.00 | 0.00 | 63 | |
| 20260510024946 | 56 | 277 | 7.0 | 13.0 | 0.00 | 0.00 | 0.00 | 63 | |
| 20260510024446 | 56 | 300 | 4.0 | 19.0 | 0.00 | 0.00 | 0.00 | 63 | |
| 20260510023946 | 56 | 312 | 6.0 | 15.0 | 0.00 | 0.00 | 0.00 | 63 | |
| 20260510023446 | 56 | 291 | 6.0 | 12.0 | 0.00 | 0.00 | 0.00 | 63 | |
| 20260510022946 | 56 | 303 | 11.0 | 12.0 | 0.00 | 0.00 | 0.00 | 62 | |
| 20260510022446 | 56 | 338 | 1.0 | 10.0 | 0.00 | 0.00 | 0.00 | 62 | |
| 20260510021946 | 56 | 300 | 6.0 | 10.0 | 0.00 | 0.00 | 0.00 | 62 | |
| 20260510021446 | 56 | 312 | 2.0 | 17.0 | 0.00 | 0.00 | 0.00 | 62 | |
| 20260510020946 | 56 | 312 | 6.0 | 15.0 | 0.00 | 0.00 | 0.00 | 62 | |
| 20260510020447 | 56 | 298 | 3.0 | 13.0 | 0.00 | 0.00 | 0.00 | 62 | |
| 20260510015947 | 56 | 289 | 7.0 | 15.0 | 0.00 | 0.00 | 0.00 | 62 | |
| 20260510015447 | 56 | 317 | 5.0 | 15.0 | 0.00 | 0.00 | 0.00 | 62 | |
| 20260510014947 | 57 | 265 | 5.0 | 12.0 | 0.00 | 0.00 | 0.00 | 61 | |
| 20260510014447 | 57 | 265 | 6.0 | 13.0 | 0.00 | 0.00 | 0.00 | 61 | |
| 20260510013947 | 57 | 292 | 5.0 | 11.0 | 0.00 | 0.00 | 0.00 | 60 | |
| 20260510013447 | 57 | 320 | 4.0 | 14.0 | 0.00 | 0.00 | 0.00 | 60 | |
| 20260510012947 | 57 | 319 | 6.0 | 16.0 | 0.00 | 0.00 | 0.00 | 59 | |
| 20260510012447 | 57 | 309 | 4.0 | 14.0 | 0.00 | 0.00 | 0.00 | 59 | |
| 20260510011947 | 57 | 312 | 7.0 | 12.0 | 0.00 | 0.00 | 0.00 | 58 | |
| 20260510011447 | 57 | 302 | 2.0 | 12.0 | 0.00 | 0.00 | 0.00 | 58 | |
| 20260510010947 | 58 | 278 | 7.0 | 10.0 | 0.00 | 0.00 | 0.00 | 58 | |
| 20260510010447 | 58 | 315 | 8.0 | 11.0 | 0.00 | 0.00 | 0.00 | 57 | |
| 20260510005947 | 58 | 289 | 2.0 | 11.0 | 0.00 | 0.00 | 0.00 | 57 | |
| 20260510005447 | 58 | 315 | 2.0 | 11.0 | 0.00 | 0.00 | 0.00 | 56 | |
| 20260510004947 | 58 | 258 | 5.0 | 13.0 | 0.00 | 0.00 | 0.00 | 57 | |
| 20260510004447 | 58 | 319 | 2.0 | 12.0 | 0.00 | 0.00 | 0.00 | 57 | |
| 20260510003947 | 58 | 309 | 5.0 | 13.0 | 0.00 | 0.00 | 0.00 | 56 | |
| 20260510003447 | 59 | 264 | 5.0 | 11.0 | 0.00 | 0.00 | 0.00 | 56 | |
| 20260510002947 | 59 | 327 | 6.0 | 10.0 | 0.00 | 0.00 | 0.00 | 56 | |
| 20260510002447 | 59 | 260 | 9.0 | 9.0 | 0.00 | 0.00 | 0.00 | 55 | |
| 20260510001947 | 59 | 271 | 2.0 | 11.0 | 0.00 | 0.00 | 0.00 | 55 | |
| 20260510001447 | 59 | 284 | 6.0 | 10.0 | 0.00 | 0.00 | 0.00 | 55 | |
| 20260510000947 | 59 | 284 | 2.0 | 10.0 | 0.00 | 0.00 | 0.00 | 55 | |
| 20260510000448 | 60 | 305 | 3.0 | 12.0 | 0.00 | 0.00 | 0.00 | 54 | |
| 20260509235947 | 60 | 281 | 2.0 | 10.0 | 0.00 | 0.00 | 0.00 | 54 | |
| 20260509235447 | 60 | 302 | 4.0 | 13.0 | 0.00 | 0.00 | 0.00 | 53 | |
| 20260509234947 | 60 | 282 | 5.0 | 9.0 | 0.00 | 0.00 | 0.00 | 53 | |
| 20260509234447 | 60 | 284 | 4.0 | 12.0 | 0.00 | 0.00 | 0.00 | 53 | |
| 20260509233947 | 60 | 322 | 4.0 | 14.0 | 0.00 | 0.00 | 0.00 | 53 | |
| 20260509233447 | 60 | 296 | 9.0 | 12.0 | 0.00 | 0.00 | 0.00 | 53 | |
| 20260509232947 | 60 | 306 | 5.0 | 10.0 | 0.00 | 0.00 | 0.00 | 53 | |
| 20260509232447 | 60 | 340 | 1.0 | 10.0 | 0.00 | 0.00 | 0.00 | 53 | |
| 20260509231947 | 60 | 291 | 6.0 | 13.0 | 0.00 | 0.00 | 0.00 | 53 | |
| 20260509231447 | 61 | 306 | 5.0 | 13.0 | 0.00 | 0.00 | 0.00 | 52 | |
| 20260509230947 | 61 | 296 | 5.0 | 9.0 | 0.00 | 0.00 | 0.00 | 53 | |
| 20260509230447 | 60 | 295 | 4.0 | 13.0 | 0.00 | 0.00 | 0.00 | 53 | |
| 20260509225947 | 60 | 330 | 1.0 | 12.0 | 0.00 | 0.00 | 0.00 | 53 | |
| 20260509225447 | 60 | 293 | 3.0 | 8.0 | 0.00 | 0.00 | 0.00 | 54 | |
| 20260509224947 | 60 | 358 | 2.0 | 13.0 | 0.00 | 0.00 | 0.00 | 53 | |
| 20260509224447 | 60 | 343 | 5.0 | 12.0 | 0.00 | 0.00 | 0.00 | 53 | |
| 20260509223947 | 60 | 312 | 6.0 | 10.0 | 0.00 | 0.00 | 0.00 | 53 | |
| 20260509223447 | 60 | 299 | 5.0 | 12.0 | 0.00 | 0.00 | 0.00 | 52 | |
| 20260509222947 | 60 | 303 | 9.0 | 12.0 | 0.00 | 0.00 | 0.00 | 51 | |
| 20260509222447 | 60 | 319 | 5.0 | 10.0 | 0.00 | 0.00 | 0.00 | 52 | |
| 20260509221947 | 60 | 322 | 4.0 | 14.0 | 0.00 | 0.00 | 0.00 | 53 | |
| 20260509221447 | 60 | 257 | 2.0 | 10.0 | 0.00 | 0.00 | 0.00 | 53 | |
| 20260509220948 | 60 | 330 | 4.0 | 14.0 | 0.00 | 0.00 | 0.00 | 52 | |
| 20260509220447 | 60 | 309 | 7.0 | 12.0 | 0.00 | 0.00 | 0.00 | 52 | |
| 20260509215947 | 60 | 323 | 5.0 | 15.0 | 0.00 | 0.00 | 0.00 | 52 | |
| 20260509215447 | 60 | 289 | 4.0 | 12.0 | 0.00 | 0.00 | 0.00 | 52 | |
| 20260509214947 | 60 | 307 | 3.0 | 12.0 | 0.00 | 0.00 | 0.00 | 52 | |
| 20260509214447 | 60 | 291 | 7.0 | 13.0 | 0.00 | 0.00 | 0.00 | 51 | |
| 20260509213947 | 60 | 309 | 6.0 | 14.0 | 0.00 | 0.00 | 0.00 | 51 | |
| 20260509213447 | 60 | 14 | 3.0 | 19.0 | 0.00 | 0.00 | 0.00 | 50 | |
| 20260509212947 | 60 | 310 | 5.0 | 12.0 | 0.00 | 0.00 | 0.00 | 51 | |
| 20260509212447 | 60 | 261 | 6.0 | 10.0 | 0.00 | 0.00 | 0.00 | 51 | |
| 20260509211947 | 60 | 275 | 6.0 | 15.0 | 0.00 | 0.00 | 0.00 | 50 | |
| 20260509211447 | 60 | 292 | 11.0 | 18.0 | 0.00 | 0.00 | 0.00 | 49 | |
| 20260509210947 | 61 | 309 | 7.0 | 15.0 | 0.00 | 0.00 | 0.00 | 49 | |
| 20260509210447 | 61 | 302 | 6.0 | 22.0 | 0.00 | 0.00 | 0.00 | 49 | |
| 20260509205947 | 61 | 331 | 7.0 | 16.0 | 0.00 | 0.00 | 0.00 | 48 | |
| 20260509205447 | 62 | 313 | 7.0 | 18.0 | 0.00 | 0.00 | 0.00 | 47 | |
| 20260509204947 | 62 | 305 | 5.0 | 11.0 | 0.00 | 0.00 | 0.00 | 48 | |
| 20260509204447 | 62 | 289 | 6.0 | 11.0 | 0.00 | 0.00 | 0.00 | 48 | |
| 20260509203947 | 61 | 243 | 6.0 | 14.0 | 0.00 | 0.00 | 0.00 | 50 | |
| 20260509203447 | 61 | 278 | 4.0 | 12.0 | 0.00 | 0.00 | 0.00 | 48 | |
| 20260509202947 | 61 | 278 | 7.0 | 15.0 | 0.00 | 0.00 | 0.00 | 49 | |
| 20260509202448 | 61 | 281 | 10.0 | 17.0 | 0.00 | 0.00 | 0.00 | 50 | |
| 20260509201947 | 61 | 298 | 9.0 | 14.0 | 0.00 | 0.00 | 0.00 | 49 | |
| 20260509201448 | 61 | 310 | 2.0 | 12.0 | 0.00 | 0.00 | 0.00 | 48 | |
| 20260509200948 | 61 | 309 | 7.0 | 18.0 | 0.00 | 0.00 | 0.00 | 48 | |
| 20260509200448 | 61 | 313 | 7.0 | 16.0 | 0.00 | 0.00 | 0.00 | 47 | |
| 20260509195948 | 62 | 333 | 3.0 | 12.0 | 0.00 | 0.00 | 0.00 | 47 | |
| 20260509195448 | 62 | 281 | 9.0 | 19.0 | 0.00 | 0.00 | 0.00 | 47 | |
| 20260509194948 | 61 | 232 | 2.0 | 15.0 | 0.00 | 0.00 | 0.00 | 47 | |
| 20260509194448 | 61 | 333 | 1.0 | 15.0 | 0.00 | 0.00 | 0.00 | 47 | |
| 20260509193948 | 61 | 281 | 4.0 | 14.0 | 0.00 | 0.00 | 0.00 | 45 | |
| 20260509193448 | 62 | 322 | 9.0 | 14.0 | 0.00 | 0.00 | 0.00 | 47 | |
| 20260509192948 | 62 | 244 | 2.0 | 11.0 | 0.00 | 0.00 | 0.00 | 45 | |
| 20260509192448 | 62 | 309 | 2.0 | 12.0 | 0.00 | 0.00 | 0.00 | 45 | |
| 20260509191948 | 62 | 270 | 7.0 | 18.0 | 0.00 | 0.00 | 0.00 | 44 | |
| 20260509191448 | 62 | 253 | 5.0 | 16.0 | 0.00 | 0.00 | 0.00 | 45 | |
| 20260509190948 | 62 | 267 | 4.0 | 10.0 | 0.00 | 0.00 | 0.00 | 47 | |
| 20260509190448 | 61 | 260 | 5.0 | 10.0 | 0.00 | 0.00 | 0.00 | 47 | |
| 20260509185948 | 62 | 315 | 3.0 | 12.0 | 0.00 | 0.00 | 0.00 | 47 | |
| 20260509185448 | 61 | 253 | 4.0 | 17.0 | 0.00 | 0.00 | 0.00 | 46 | |
| 20260509184948 | 61 | 253 | 3.0 | 17.0 | 0.00 | 0.00 | 0.00 | 47 | |
| 20260509184448 | 61 | 306 | 9.0 | 11.0 | 0.00 | 0.00 | 0.00 | 49 | |
| 20260509183948 | 61 | 278 | 5.0 | 17.0 | 0.00 | 0.00 | 0.00 | 48 | |
| 20260509183448 | 61 | 234 | 7.0 | 17.0 | 0.00 | 0.00 | 0.00 | 46 | |
| 20260509182948 | 61 | 285 | 9.0 | 19.0 | 0.00 | 0.00 | 0.00 | 46 | |
| 20260509182448 | 61 | 319 | 5.0 | 17.0 | 0.00 | 0.00 | 0.00 | 45 | |
| 20260509181948 | 61 | 286 | 9.0 | 14.0 | 0.00 | 0.00 | 0.00 | 48 | |
| 20260509181448 | 61 | 250 | 4.0 | 11.0 | 0.00 | 0.00 | 0.00 | 47 | |
| 20260509180948 | 61 | 307 | 5.0 | 13.0 | 0.00 | 0.00 | 0.00 | 48 | |
| 20260509180448 | 61 | 275 | 9.0 | 13.0 | 0.00 | 0.00 | 0.00 | 49 | |
| 20260509175948 | 62 | 281 | 4.0 | 10.0 | 0.00 | 0.00 | 0.00 | 50 | |
| 20260509175448 | 61 | 281 | 5.0 | 12.0 | 0.00 | 0.00 | 0.00 | 50 | |
| 20260509174948 | 61 | 272 | 6.0 | 13.0 | 0.00 | 0.00 | 0.00 | 49 | |
| 20260509174448 | 61 | 320 | 5.0 | 11.0 | 0.00 | 0.00 | 0.00 | 53 | |
| 20260509173948 | 61 | 282 | 5.0 | 13.0 | 0.00 | 0.00 | 0.00 | 51 | |
| 20260509173448 | 61 | 248 | 5.0 | 15.0 | 0.00 | 0.00 | 0.00 | 51 | |
| 20260509172948 | 61 | 262 | 2.0 | 13.0 | 0.00 | 0.00 | 0.00 | 50 | |
| 20260509172448 | 60 | 271 | 8.0 | 11.0 | 0.00 | 0.00 | 0.00 | 52 | |
| 20260509171948 | 60 | 43 | 6.0 | 14.0 | 0.00 | 0.00 | 0.00 | 51 | |
| 20260509171448 | 60 | 234 | 3.0 | 18.0 | 0.00 | 0.00 | 0.00 | 51 | |
| 20260509170948 | 60 | 181 | 4.0 | 16.0 | 0.00 | 0.00 | 0.00 | 54 | |
| 20260509170448 | 59 | 265 | 6.0 | 17.0 | 0.00 | 0.00 | 0.00 | 54 | |
| 20260509165948 | 59 | 223 | 6.0 | 13.0 | 0.00 | 0.00 | 0.00 | 55 | |
| 20260509165448 | 59 | 246 | 3.0 | 11.0 | 0.00 | 0.00 | 0.00 | 53 | |
| 20260509164948 | 58 | 293 | 1.0 | 8.0 | 0.00 | 0.00 | 0.00 | 54 | |
| 20260509164448 | 58 | 264 | 2.0 | 12.0 | 0.00 | 0.00 | 0.00 | 55 | |
| 20260509163948 | 58 | 285 | 2.0 | 12.0 | 0.00 | 0.00 | 0.00 | 53 | |
| 20260509163448 | 58 | 296 | 0.0 | 8.0 | 0.00 | 0.00 | 0.00 | 54 | |
| 20260509162948 | 57 | 230 | 5.0 | 9.0 | 0.00 | 0.00 | 0.00 | 54 | |
| 20260509162448 | 57 | 241 | 6.0 | 9.0 | 0.00 | 0.00 | 0.00 | 55 | |
| 20260509161948 | 57 | 264 | 2.0 | 8.0 | 0.00 | 0.00 | 0.00 | 54 | |
| 20260509161448 | 57 | 275 | 3.0 | 7.0 | 0.00 | 0.00 | 0.00 | 54 | |
| 20260509160948 | 57 | 132 | 1.0 | 6.0 | 0.00 | 0.00 | 0.00 | 54 | |
| 20260509160448 | 57 | 291 | 0.0 | 11.0 | 0.00 | 0.00 | 0.00 | 53 | |
| 20260509155948 | 57 | 282 | 4.0 | 8.0 | 0.00 | 0.00 | 0.00 | 53 | |
| 20260509155448 | 57 | 315 | 1.0 | 5.0 | 0.00 | 0.00 | 0.00 | 53 | |
| 20260509154948 | 57 | 282 | 2.0 | 7.0 | 0.00 | 0.00 | 0.00 | 54 | |
| 20260509154448 | 57 | 262 | 3.0 | 9.0 | 0.00 | 0.00 | 0.00 | 54 | |
| 20260509153948 | 56 | 270 | 4.0 | 8.0 | 0.00 | 0.00 | 0.00 | 54 | |
| 20260509153448 | 56 | 298 | 5.0 | 9.0 | 0.00 | 0.00 | 0.00 | 54 | |
| 20260509152948 | 56 | 23 | 7.0 | 7.0 | 0.00 | 0.00 | 0.00 | 55 | |
| 20260509152448 | 56 | 208 | 0.0 | 11.0 | 0.00 | 0.00 | 0.00 | 55 | |
| 20260509151948 | 56 | 300 | 3.0 | 7.0 | 0.00 | 0.00 | 0.00 | 56 | |
| 20260509151448 | 56 | 340 | 4.0 | 10.0 | 0.00 | 0.00 | 0.00 | 54 | |
| 20260509150948 | 55 | 285 | 6.0 | 9.0 | 0.00 | 0.00 | 0.00 | 56 | |
| 20260509150448 | 55 | 351 | 6.0 | 10.0 | 0.00 | 0.00 | 0.00 | 56 | |
| 20260509145949 | 55 | 302 | 5.0 | 9.0 | 0.00 | 0.00 | 0.00 | 55 | |
| 20260509145448 | 55 | 305 | 6.0 | 12.0 | 0.00 | 0.00 | 0.00 | 54 | |
| 20260509144949 | 56 | 307 | 4.0 | 10.0 | 0.00 | 0.00 | 0.00 | 54 | |
| 20260509144449 | 56 | 315 | 2.0 | 12.0 | 0.00 | 0.00 | 0.00 | 53 | |
| 20260509143949 | 56 | 313 | 6.0 | 12.0 | 0.00 | 0.00 | 0.00 | 54 | |
| 20260509143449 | 56 | 345 | 5.0 | 9.0 | 0.00 | 0.00 | 0.00 | 53 | |
| 20260509142949 | 56 | 313 | 3.0 | 13.0 | 0.00 | 0.00 | 0.00 | 52 | |
| 20260509142449 | 56 | 307 | 5.0 | 11.0 | 0.00 | 0.00 | 0.00 | 52 | |
| 20260509141949 | 56 | 303 | 4.0 | 9.0 | 0.00 | 0.00 | 0.00 | 53 | |
| 20260509141449 | 56 | 232 | 4.0 | 7.0 | 0.00 | 0.00 | 0.00 | 53 | |
| 20260509140949 | 56 | 350 | 1.0 | 9.0 | 0.00 | 0.00 | 0.00 | 54 | |
| 20260509140449 | 55 | 277 | 6.0 | 11.0 | 0.00 | 0.00 | 0.00 | 53 | |
| 20260509135949 | 55 | 312 | 3.0 | 7.0 | 0.00 | 0.00 | 0.00 | 54 | |
| 20260509135449 | 55 | 315 | 4.0 | 10.0 | 0.00 | 0.00 | 0.00 | 53 | |
| 20260509134949 | 55 | 322 | 3.0 | 12.0 | 0.00 | 0.00 | 0.00 | 53 | |
| 20260509134449 | 55 | 319 | 2.0 | 9.0 | 0.00 | 0.00 | 0.00 | 54 | |
| 20260509133949 | 55 | 337 | 3.0 | 11.0 | 0.00 | 0.00 | 0.00 | 53 | |
| 20260509133449 | 55 | 274 | 3.0 | 9.0 | 0.00 | 0.00 | 0.00 | 55 | |
| 20260509132949 | 55 | 343 | 5.0 | 7.0 | 0.00 | 0.00 | 0.00 | 53 | |
| 20260509132449 | 55 | 241 | 1.0 | 11.0 | 0.00 | 0.00 | 0.00 | 52 | |
| 20260509131949 | 55 | 194 | 3.0 | 12.0 | 0.00 | 0.00 | 0.00 | 53 | |
| 20260509131449 | 55 | 317 | 6.0 | 10.0 | 0.00 | 0.00 | 0.00 | 52 | |
| 20260509130949 | 55 | 306 | 1.0 | 10.0 | 0.00 | 0.00 | 0.00 | 52 | |
| 20260509130449 | 54 | 11 | 4.0 | 8.0 | 0.00 | 0.00 | 0.00 | 53 | |
| 20260509125949 | 54 | 288 | 6.0 | 9.0 | 0.00 | 0.00 | 0.00 | 52 | |
| 20260509125449 | 54 | 272 | 1.0 | 8.0 | 0.00 | 0.00 | 0.00 | 53 | |
| 20260509124949 | 54 | 305 | 0.0 | 8.0 | 0.00 | 0.00 | 0.00 | 52 | |
| 20260509124449 | 53 | 225 | 2.0 | 6.0 | 0.00 | 0.00 | 0.00 | 53 | |
| 20260509123949 | 53 | 244 | 0.0 | 6.0 | 0.00 | 0.00 | 0.00 | 53 | |
| 20260509123449 | 53 | 337 | 0.0 | 5.0 | 0.00 | 0.00 | 0.00 | 55 | |
| 20260509122949 | 52 | 289 | 4.0 | 7.0 | 0.00 | 0.00 | 0.00 | 54 | |
| 20260509122449 | 52 | 338 | 0.0 | 3.0 | 0.00 | 0.00 | 0.00 | 58 | |
| 20260509121949 | 52 | 81 | 0.0 | 0.0 | 0.00 | 0.00 | 0.00 | 57 | |
| 20260509121449 | 51 | 81 | 0.0 | 0.0 | 0.00 | 0.00 | 0.00 | 57 | |
| 20260509120949 | 51 | 81 | 0.0 | 0.0 | 0.00 | 0.00 | 0.00 | 58 | |
| 20260509120449 | 51 | 81 | 0.0 | 0.0 | 0.00 | 0.00 | 0.00 | 58 | |
| 20260509115949 | 51 | 81 | 0.0 | 0.0 | 0.00 | 0.00 | 0.00 | 57 | |
| 20260509115449 | 51 | 81 | 0.0 | 0.0 | 0.00 | 0.00 | 0.00 | 57 | |
| 20260509114949 | 51 | 81 | 0.0 | 3.0 | 0.00 | 0.00 | 0.00 | 56 | |
| 20260509114449 | 51 | 57 | 2.0 | 4.0 | 0.00 | 0.00 | 0.00 | 56 | |
| 20260509113949 | 51 | 81 | 0.0 | 4.0 | 0.00 | 0.00 | 0.00 | 56 | |
| 20260509113449 | 51 | 81 | 4.0 | 4.0 | 0.00 | 0.00 | 0.00 | 56 | |
| 20260509112949 | 51 | 90 | 0.0 | 3.0 | 0.00 | 0.00 | 0.00 | 56 | |
| 20260509112449 | 51 | 63 | 0.0 | 4.0 | 0.00 | 0.00 | 0.00 | 56 | |
| 20260509111949 | 51 | 71 | 4.0 | 4.0 | 0.00 | 0.00 | 0.00 | 56 | |
| 20260509111449 | 51 | 66 | 1.0 | 3.0 | 0.00 | 0.00 | 0.00 | 56 | |
| 20260509110949 | 51 | 60 | 0.0 | 0.0 | 0.00 | 0.00 | 0.00 | 56 | |
| 20260509110449 | 51 | 60 | 0.0 | 2.0 | 0.00 | 0.00 | 0.00 | 56 | |
| 20260509105949 | 51 | 25 | 1.0 | 2.0 | 0.00 | 0.00 | 0.00 | 57 | |
| 20260509105449 | 51 | 8 | 1.0 | 3.0 | 0.00 | 0.00 | 0.00 | 57 | |
| 20260509104949 | 50 | 18 | 2.0 | 3.0 | 0.00 | 0.00 | 0.00 | 58 | |
| 20260509104449 | 50 | 352 | 1.0 | 6.0 | 0.00 | 0.00 | 0.00 | 57 | |
| 20260509103949 | 51 | 23 | 4.0 | 6.0 | 0.00 | 0.00 | 0.00 | 56 | |
| 20260509103449 | 51 | 340 | 2.0 | 7.0 | 0.00 | 0.00 | 0.00 | 53 | |
| 20260509102949 | 51 | 347 | 6.0 | 7.0 | 0.00 | 0.00 | 0.00 | 53 | |
| 20260509102449 | 51 | 18 | 1.0 | 8.0 | 0.00 | 0.00 | 0.00 | 53 | |
| 20260509101949 | 51 | 327 | 5.0 | 8.0 | 0.00 | 0.00 | 0.00 | 52 | |
| 20260509101449 | 52 | 348 | 3.0 | 7.0 | 0.00 | 0.00 | 0.00 | 51 | |
| 20260509100949 | 52 | 340 | 6.0 | 9.0 | 0.00 | 0.00 | 0.00 | 50 | |
| 20260509100449 | 53 | 32 | 4.0 | 8.0 | 0.00 | 0.00 | 0.00 | 47 | |
| 20260509095949 | 53 | 272 | 4.0 | 8.0 | 0.00 | 0.00 | 0.00 | 47 | |
| 20260509095449 | 53 | 279 | 3.0 | 8.0 | 0.00 | 0.00 | 0.00 | 47 | |
| 20260509094949 | 53 | 303 | 5.0 | 10.0 | 0.00 | 0.00 | 0.00 | 47 | |
| 20260509094449 | 53 | 307 | 4.0 | 11.0 | 0.00 | 0.00 | 0.00 | 47 | |
| 20260509093949 | 53 | 254 | 1.0 | 7.0 | 0.00 | 0.00 | 0.00 | 46 | |
| 20260509093449 | 54 | 230 | 3.0 | 10.0 | 0.00 | 0.00 | 0.00 | 46 | |
| 20260509092949 | 54 | 267 | 2.0 | 10.0 | 0.00 | 0.00 | 0.00 | 46 | |
| 20260509092449 | 54 | 312 | 5.0 | 8.0 | 0.00 | 0.00 | 0.00 | 46 | |
| 20260509091950 | 54 | 305 | 3.0 | 15.0 | 0.00 | 0.00 | 0.00 | 45 | |
| 20260509091450 | 54 | 250 | 4.0 | 9.0 | 0.00 | 0.00 | 0.00 | 46 | |
| 20260509090950 | 54 | 300 | 6.0 | 9.0 | 0.00 | 0.00 | 0.00 | 46 | |
| 20260509090450 | 54 | 320 | 3.0 | 9.0 | 0.00 | 0.00 | 0.00 | 46 | |
| 20260509085950 | 54 | 298 | 3.0 | 10.0 | 0.00 | 0.00 | 0.00 | 46 | |
| 20260509085450 | 54 | 277 | 2.0 | 10.0 | 0.00 | 0.00 | 0.00 | 45 | |
| 20260509084950 | 54 | 257 | 5.0 | 13.0 | 0.00 | 0.00 | 0.00 | 45 | |
| 20260509084450 | 54 | 317 | 4.0 | 10.0 | 0.00 | 0.00 | 0.00 | 44 | |
| 20260509083950 | 54 | 277 | 3.0 | 13.0 | 0.00 | 0.00 | 0.00 | 44 | |
| 20260509083450 | 54 | 248 | 7.0 | 9.0 | 0.00 | 0.00 | 0.00 | 44 | |
| 20260509082950 | 54 | 212 | 1.0 | 11.0 | 0.00 | 0.00 | 0.00 | 44 | |
| 20260509082450 | 54 | 255 | 7.0 | 12.0 | 0.00 | 0.00 | 0.00 | 44 | |
| 20260509081950 | 54 | 230 | 4.0 | 6.0 | 0.00 | 0.00 | 0.00 | 45 | |
| 20260509081450 | 54 | 291 | 4.0 | 9.0 | 0.00 | 0.00 | 0.00 | 45 | |
| 20260509080950 | 54 | 295 | 4.0 | 15.0 | 0.00 | 0.00 | 0.00 | 44 | |
| 20260509080450 | 54 | 262 | 7.0 | 11.0 | 0.00 | 0.00 | 0.00 | 44 | |
| 20260509075950 | 54 | 330 | 2.0 | 13.0 | 0.00 | 0.00 | 0.00 | 44 | |
| 20260509075450 | 54 | 213 | 4.0 | 12.0 | 0.00 | 0.00 | 0.00 | 44 | |
| 20260509074950 | 54 | 248 | 5.0 | 11.0 | 0.00 | 0.00 | 0.00 | 44 | |
| 20260509074450 | 54 | 289 | 3.0 | 11.0 | 0.00 | 0.00 | 0.00 | 44 | |
| 20260509073950 | 54 | 246 | 3.0 | 13.0 | 0.00 | 0.00 | 0.00 | 44 | |
| 20260509073450 | 54 | 327 | 7.0 | 11.0 | 0.00 | 0.00 | 0.00 | 44 | |
| 20260509072950 | 54 | 267 | 3.0 | 13.0 | 0.00 | 0.00 | 0.00 | 44 | |
| 20260509072450 | 54 | 240 | 6.0 | 15.0 | 0.00 | 0.00 | 0.00 | 44 | |
| 20260509071950 | 54 | 258 | 5.0 | 14.0 | 0.00 | 0.00 | 0.00 | 44 | |
| 20260509071450 | 54 | 258 | 9.0 | 12.0 | 0.00 | 0.00 | 0.00 | 44 | |
| 20260509070950 | 55 | 281 | 6.0 | 15.0 | 0.00 | 0.00 | 0.00 | 43 | |
| 20260509070450 | 55 | 281 | 7.0 | 9.0 | 0.00 | 0.00 | 0.00 | 44 | |
| 20260509065950 | 55 | 217 | 4.0 | 11.0 | 0.00 | 0.00 | 0.00 | 44 | |
| 20260509065450 | 55 | 300 | 6.0 | 13.0 | 0.00 | 0.00 | 0.00 | 44 | |
| 20260509064950 | 55 | 320 | 4.0 | 11.0 | 0.00 | 0.00 | 0.00 | 44 | |
| 20260509064450 | 55 | 312 | 0.0 | 11.0 | 0.00 | 0.00 | 0.00 | 44 | |
| 20260509063950 | 55 | 248 | 8.0 | 10.0 | 0.00 | 0.00 | 0.00 | 44 | |
| 20260509063450 | 55 | 260 | 2.0 | 10.0 | 0.00 | 0.00 | 0.00 | 43 | |
| 20260509062950 | 55 | 180 | 0.0 | 11.0 | 0.00 | 0.00 | 0.00 | 43 | |
| 20260509062450 | 55 | 254 | 6.0 | 8.0 | 0.00 | 0.00 | 0.00 | 43 | |
| 20260509061950 | 55 | 261 | 5.0 | 9.0 | 0.00 | 0.00 | 0.00 | 43 | |
| 20260509061450 | 55 | 299 | 3.0 | 11.0 | 0.00 | 0.00 | 0.00 | 44 |